sat.trackr.live / text

‹ back to catalog

SITRO-AIS 22

NORAD 61740 · 2024-199F

PAYLOAD ACTIVE UNKNOWN

§ Identity

Operator
Country
CIS
Launch date
2024-11-04
Launch site
VOSTO
Launch vehicle
Mass (kg)
RCS (m²)

External: N2YO · Heavens-Above · Gunter

§ Orbital elements

Epoch: 2026-09-22T21:14:42.366912Z

Period
96.24 min
Inclination
97.3212°
Eccentricity
0.0014157
Mean motion
14.96281194 rev/d
Perigee alt
568.6 km
Apogee alt
588.2 km
Semi-major
6,956.5 km
B*
1.8666e-4
RAAN
97.6065°
Arg perigee
92.4367°
Mean anomaly
267.8477°
Rev number
14,652

§ Raw data

SITRO-AIS 221 61740U 24199F   26265.88521258  .00002060  00000+0  18666-3 0  99902 61740  97.3212  97.6065 0014157  92.4367 267.8477 14.96281194146520

JSON: /api/v1/satellites/61740 · /tle

For live sub-satellite position, see the globe view (requires WebGL).

§ Visibility from observer

Set your observer location to see the next 7 days of passes ≥ 10°. The values pass through the URL so the page stays shareable.

No JS? Fill the form by hand. The geolocation button needs JavaScript.

§ Radio — SatNOGS DB

ModeDescriptionDownlinkUplink
GMSK USP Mode U - GMSK2k4 - USP 401.195 MHz

1 transmitter · refreshed weekly from db.satnogs.org